Location: Gleizolles
(44.4833°N, 6.7667°E)
Time: 23:50:08
(UTC+00:00)

Vanguard 2 Rocket - Pass Details

Date: 15 June 2024
Orbit: 555 x 3302 km, 32.9° (Epoch: 24 July)

Event Time Altitude Azimuth Distance (km) Brightness Sun altitude
Rises 03:16:18 0° 224° (SW) 7,267 - -5.3°
Exits shadow 03:18:46 - 221° (SW) 6,805 10.7 -4.9°
Reaches altitude 10° 03:21:47 10° 217° (SW) 6,238 10.5 -4.5°
Maximum altitude 03:38:41 38° 159° (SSE) 3,760 9.9 -2.1°
Drops below altitude 10° 03:50:58 10° 97° (E) 4,601 11.3 -0.3°
Sets 03:54:16 0° 90° (E) 5,259 11.9 0.1°
